Corpus Christi, TX

10:38 PM CST on February 20, 2017 (GMT -0600)
Corpus Christi Naval Air Station-Truax

Weather History for KNGP - August, 2013

Change the Weather History Date:

Monday, August 5, 2013

  Actual Average Record
Temperature  
Mean Temperature 86 °F -  
Max Temperature 91 °F 89 °F 93 °F (1996)
Min Temperature 81 °F 76 °F 73 °F (1999)
Cooling Degree Days 21    
Growing Degree Days 36 (Base 50)    
Moisture  
Dew Point 78 °F    
Average Humidity 80    
Maximum Humidity 94    
Minimum Humidity 59    
Precipitation  
Precipitation 0.00 in - - ()
Sea Level Pressure  
Sea Level Pressure 29.98 in    
Wind  
Wind Speed 15 mph (SSE)    
Max Wind Speed 25 mph    
Max Gust Speed 36 mph    
Visibility 10 miles    
Events      
Averages and records for this station are not official NWS values.
T = Trace of Precipitation, MM = Missing Value Source: NWS Daily Summary

Daily Weather History Graph

Daily Weather History Graph

Search for Another Location

Airport or City:

Trip Planner

Search our weather history database for the weather conditions in past years. The results will help you decide how hot, cold, wet, or windy it might be!

Date:

Astronomy

Aug. 05, 2013 Rise Set
Actual Time 6:54 AM CDT 8:15 PM CDT
Civil Twilight 6:29 AM CDT 8:40 PM CDT
Nautical Twilight 5:59 AM CDT 9:09 PM CDT
Astronomical Twilight 5:28 AM CDT 9:40 PM CDT
Moon 5:49 AM CDT (8/5) 7:19 PM CDT (8/5)
Length of Visible Light 14h 10m
Length of Day
13h 20m
Waning Crescent, 1% of the Moon is Illuminated
Aug 5
Waning Crescent
Aug 6
New
Aug 14
First Quarter
Aug 20
Full
Aug 28
Last Quarter

Hourly Weather History & Observations

Time (CDT) Temp. Heat Index Dew Point Humidity Pressure Visibility Wind Dir Wind Speed Gust Speed Precip Events Conditions
12:56 AM 82.0 °F 91.6 °F 79.0 °F 90% 30.02 in 10.0 mi SSE 12.7 mph - N/A   Clear
1:56 AM 82.0 °F 91.6 °F 79.0 °F 90% 30.01 in 10.0 mi SSE 10.4 mph - N/A   Clear
2:56 AM 82.0 °F 91.6 °F 79.0 °F 90% 30.00 in 10.0 mi South 11.5 mph 20.7 mph N/A   Clear
3:56 AM 82.0 °F 91.6 °F 79.0 °F 90% 30.00 in 10.0 mi South 10.4 mph - N/A   Clear
4:56 AM 81.0 °F 89.2 °F 79.0 °F 94% 29.99 in 10.0 mi South 11.5 mph - N/A   Clear
5:56 AM 81.0 °F 89.2 °F 79.0 °F 94% 30.00 in 10.0 mi South 11.5 mph - N/A   Partly Cloudy
6:56 AM 81.0 °F 89.2 °F 79.0 °F 94% 30.01 in 7.0 mi South 9.2 mph - N/A   Scattered Clouds
7:56 AM 82.0 °F 91.6 °F 79.0 °F 90% 30.01 in 10.0 mi SSE 9.2 mph - N/A   Scattered Clouds
8:56 AM 84.0 °F 96.0 °F 79.0 °F 85% 30.01 in 10.0 mi South 13.8 mph - N/A   Scattered Clouds
9:56 AM 86.0 °F 98.3 °F 78.1 °F 77% 30.03 in 10.0 mi South 16.1 mph 21.9 mph N/A   Partly Cloudy
10:56 AM 88.0 °F 101.3 °F 78.1 °F 72% 30.03 in 10.0 mi SSE 17.3 mph - N/A   Scattered Clouds
11:56 AM 89.1 °F 101.4 °F 77.0 °F 67% 30.03 in 10.0 mi South 18.4 mph 24.2 mph N/A   Scattered Clouds
12:56 PM 90.0 °F 102.5 °F 77.0 °F 65% 30.00 in 10.0 mi South 19.6 mph 27.6 mph N/A   Scattered Clouds
1:56 PM 91.0 °F 102.9 °F 75.9 °F 61% 29.99 in 10.0 mi SSE 21.9 mph 28.8 mph N/A   Scattered Clouds
2:56 PM 91.9 °F 103.9 °F 75.9 °F 59% 29.96 in 10.0 mi SSE 24.2 mph 29.9 mph N/A   Scattered Clouds
3:56 PM 90.0 °F 101.3 °F 75.9 °F 63% 29.95 in 10.0 mi SSE 25.3 mph 31.1 mph N/A   Scattered Clouds
4:56 PM 89.1 °F 100.2 °F 75.9 °F 65% 29.94 in 10.0 mi SSE 25.3 mph 34.5 mph N/A   Scattered Clouds
5:56 PM 88.0 °F 100.2 °F 77.0 °F 70% 29.92 in 10.0 mi SSE 20.7 mph 35.7 mph N/A   Scattered Clouds
6:56 PM 86.0 °F 96.9 °F 77.0 °F 74% 29.92 in 10.0 mi SSE 21.9 mph 33.4 mph N/A   Partly Cloudy
7:56 PM 84.0 °F 93.7 °F 77.0 °F 79% 29.92 in 10.0 mi SSE 16.1 mph 27.6 mph N/A   Scattered Clouds
8:56 PM 82.9 °F 92.8 °F 78.1 °F 85% 29.93 in 10.0 mi SSE 18.4 mph 26.5 mph N/A   Partly Cloudy
9:56 PM 82.0 °F 91.6 °F 79.0 °F 90% 29.94 in 10.0 mi SSE 16.1 mph 26.5 mph N/A   Partly Cloudy
10:56 PM 82.0 °F 91.6 °F 79.0 °F 90% 29.94 in 10.0 mi SSE 18.4 mph 24.2 mph N/A   Partly Cloudy
11:56 PM 82.0 °F 91.6 °F 79.0 °F 90% 29.95 in 10.0 mi SSE 16.1 mph 25.3 mph N/A   Partly Cloudy